Location: Unspecified
(0.0000°N, 0.0000°E)
Time: 13:42:26
(UTC+00:00)

Transit 2A Rocket - Pass Details

Date: 22 November 2019
Orbit: 594 x 909 km, 66.7° (Epoch: 08 December)

Event Time Altitude Azimuth Distance (km) Brightness Sun altitude
Rises 18:30:31 0° 184° (S) 3,392 8.7 -10.4°
Reaches altitude 10° 18:33:17 10° 175° (S) 2,407 7.8 -11.1°
Maximum altitude 18:38:13 33° 111° (ESE) 1,265 5.8 -12.2°
Enters shadow 18:41:22 18° 57° (ENE) 1,774 6.3 -12.9°
Drops below altitude 10° 18:42:45 10° 48° (NE) 2,209 - -13.3°
Sets 18:45:11 0° 38° (NE) 3,074 - -13.8°
